Time,TemperatureF,DewpointF,PressureIn,WindDirection,WindDirectionDegrees,WindSpeedMPH,WindSpeedGustMPH,Humidity,HourlyPrecipIn,Conditions,Clouds,dailyrainin,SoftwareType,DateUTC
2013-02-06 00:00:00,9.6,8.0,29.86,East,90,0.0,2.0,82,0.00,,,0.00,Rainwise IP-100,2013-02-06 05:00:00,
2013-02-06 00:01:00,9.5,8.0,29.86,East,90,0.0,1.0,82,0.00,,,0.00,Rainwise IP-100,2013-02-06 05:01:00,
2013-02-06 00:02:00,9.5,8.0,29.86,East,90,0.0,0.0,81,0.00,,,0.00,Rainwise IP-100,2013-02-06 05:02:00,
2013-02-06 00:07:00,9.4,8.0,29.86,East,90,0.0,0.0,83,0.00,,,0.00,Rainwise IP-100,2013-02-06 05:07:00,
2013-02-06 00:12:00,9.3,8.0,29.86,East,90,0.0,1.0,83,0.00,,,0.00,Rainwise IP-100,2013-02-06 05:12:00,
2013-02-06 00:18:00,9.5,8.0,29.86,East,90,0.0,2.0,82,0.00,,,0.00,Rainwise IP-100,2013-02-06 05:18:00,
2013-02-06 00:23:00,9.7,8.0,29.86,East,90,0.0,1.0,82,0.00,,,0.00,Rainwise IP-100,2013-02-06 05:23:00,
2013-02-06 00:28:00,9.8,8.0,29.86,East,90,0.0,0.0,81,0.00,,,0.00,Rainwise IP-100,2013-02-06 05:28:00,
2013-02-06 00:33:00,9.8,8.0,29.86,East,90,0.0,0.0,82,0.00,,,0.00,Rainwise IP-100,2013-02-06 05:33:00,
2013-02-06 00:38:00,9.9,8.0,29.86,East,90,0.0,2.0,82,0.00,,,0.00,Rainwise IP-100,2013-02-06 05:38:00,
2013-02-06 00:43:00,10.1,8.0,29.86,East,90,0.0,1.0,82,0.00,,,0.00,Rainwise IP-100,2013-02-06 05:43:00,
2013-02-06 00:48:00,10.2,8.0,29.86,East,90,0.0,1.0,80,0.00,,,0.00,Rainwise IP-100,2013-02-06 05:48:00,
2013-02-06 00:53:00,10.3,8.0,29.85,East,90,0.0,0.0,80,0.00,,,0.00,Rainwise IP-100,2013-02-06 05:53:00,
2013-02-06 00:58:00,10.4,8.0,29.85,East,90,0.0,0.0,81,0.00,,,0.00,Rainwise IP-100,2013-02-06 05:58:00,
2013-02-06 01:03:00,10.5,8.0,29.84,East,90,0.0,0.0,80,0.00,,,0.00,Rainwise IP-100,2013-02-06 06:03:00,
2013-02-06 01:08:00,10.6,8.0,29.84,East,90,0.0,0.0,81,0.00,,,0.00,Rainwise IP-100,2013-02-06 06:08:00,
2013-02-06 01:13:00,10.7,8.0,29.84,East,90,0.0,0.0,80,0.00,,,0.00,Rainwise IP-100,2013-02-06 06:13:00,
2013-02-06 01:19:00,10.7,8.0,29.84,East,90,0.0,0.0,81,0.00,,,0.00,Rainwise IP-100,2013-02-06 06:19:00,
2013-02-06 01:24:00,10.7,8.0,29.84,East,90,0.0,0.0,81,0.00,,,0.00,Rainwise IP-100,2013-02-06 06:24:00,
2013-02-06 01:29:00,10.7,8.0,29.84,East,90,0.0,0.0,82,0.00,,,0.00,Rainwise IP-100,2013-02-06 06:29:00,
2013-02-06 01:34:00,10.7,8.0,29.85,East,90,0.0,0.0,82,0.00,,,0.00,Rainwise IP-100,2013-02-06 06:34:00,
2013-02-06 01:39:00,10.8,8.0,29.85,East,90,0.0,0.0,83,0.00,,,0.00,Rainwise IP-100,2013-02-06 06:39:00,
2013-02-06 01:44:00,10.9,8.0,29.85,East,90,0.0,1.0,82,0.00,,,0.00,Rainwise IP-100,2013-02-06 06:44:00,
2013-02-06 01:49:00,11.1,8.0,29.85,East,90,0.0,0.0,83,0.00,,,0.00,Rainwise IP-100,2013-02-06 06:49:00,
2013-02-06 01:54:00,11.1,8.0,29.85,East,90,0.0,0.0,83,0.00,,,0.00,Rainwise IP-100,2013-02-06 06:54:00,
2013-02-06 01:59:00,11.2,8.0,29.85,East,90,0.0,0.0,83,0.00,,,0.00,Rainwise IP-100,2013-02-06 06:59:00,
2013-02-06 02:04:00,11.3,8.0,29.85,East,90,0.0,0.0,84,0.00,,,0.00,Rainwise IP-100,2013-02-06 07:04:00,
2013-02-06 02:09:00,11.3,8.0,29.85,East,90,2.0,0.0,84,0.00,,,0.00,Rainwise IP-100,2013-02-06 07:09:00,
2013-02-06 02:15:00,11.4,8.0,29.85,East,90,0.0,2.0,83,0.00,,,0.00,Rainwise IP-100,2013-02-06 07:15:00,
2013-02-06 02:20:00,11.4,8.0,29.85,East,90,0.0,0.0,84,0.00,,,0.00,Rainwise IP-100,2013-02-06 07:20:00,
2013-02-06 02:25:00,11.5,11.0,29.85,East,90,0.0,0.0,84,0.00,,,0.00,Rainwise IP-100,2013-02-06 07:25:00,
2013-02-06 02:30:00,11.4,8.0,29.85,East,90,0.0,0.0,85,0.00,,,0.00,Rainwise IP-100,2013-02-06 07:30:00,
2013-02-06 02:35:00,11.3,8.0,29.85,East,90,0.0,0.0,85,0.00,,,0.00,Rainwise IP-100,2013-02-06 07:35:00,
2013-02-06 02:40:00,11.2,8.0,29.85,East,90,0.0,0.0,86,0.00,,,0.00,Rainwise IP-100,2013-02-06 07:40:00,
2013-02-06 02:45:00,10.8,8.0,29.84,East,90,0.0,0.0,87,0.00,,,0.00,Rainwise IP-100,2013-02-06 07:45:00,
2013-02-06 02:50:00,10.6,8.0,29.84,East,90,0.0,0.0,88,0.00,,,0.00,Rainwise IP-100,2013-02-06 07:50:00,
2013-02-06 02:55:00,10.4,8.0,29.85,East,90,0.0,0.0,89,0.00,,,0.00,Rainwise IP-100,2013-02-06 07:55:00,
2013-02-06 03:00:00,10.3,8.0,29.85,East,90,1.0,1.0,88,0.00,,,0.00,Rainwise IP-100,2013-02-06 08:00:00,
2013-02-06 03:05:00,10.2,8.0,29.85,East,90,0.0,2.0,88,0.00,,,0.00,Rainwise IP-100,2013-02-06 08:05:00,
2013-02-06 03:10:00,10.3,8.0,29.86,East,90,0.0,0.0,90,0.00,,,0.00,Rainwise IP-100,2013-02-06 08:10:00,
2013-02-06 03:16:00,10.4,8.0,29.85,East,90,0.0,0.0,90,0.00,,,0.00,Rainwise IP-100,2013-02-06 08:16:00,
2013-02-06 03:21:00,10.6,8.0,29.84,East,90,0.0,2.0,89,0.00,,,0.00,Rainwise IP-100,2013-02-06 08:21:00,
2013-02-06 03:26:00,10.8,8.0,29.84,East,90,0.0,0.0,89,0.00,,,0.00,Rainwise IP-100,2013-02-06 08:26:00,
2013-02-06 03:31:00,11.1,8.0,29.85,East,90,0.0,0.0,91,0.00,,,0.00,Rainwise IP-100,2013-02-06 08:31:00,
2013-02-06 03:36:00,11.4,8.0,29.85,East,90,0.0,0.0,92,0.00,,,0.00,Rainwise IP-100,2013-02-06 08:36:00,
2013-02-06 03:41:00,11.9,11.0,29.84,East,90,0.0,2.0,89,0.00,,,0.00,Rainwise IP-100,2013-02-06 08:41:00,
2013-02-06 03:46:00,12.2,11.0,29.85,East,90,0.0,0.0,89,0.00,,,0.00,Rainwise IP-100,2013-02-06 08:46:00,
2013-02-06 03:51:00,12.6,11.0,29.85,North,360,2.0,2.0,90,0.00,,,0.00,Rainwise IP-100,2013-02-06 08:51:00,
2013-02-06 03:56:00,13.2,11.0,29.85,North,360,2.0,2.0,91,0.00,,,0.00,Rainwise IP-100,2013-02-06 08:56:00,
2013-02-06 04:01:00,13.8,11.0,29.85,North,360,1.0,2.0,89,0.00,,,0.00,Rainwise IP-100,2013-02-06 09:01:00,
2013-02-06 04:06:00,14.1,11.0,29.85,North,360,1.0,2.0,89,0.00,,,0.00,Rainwise IP-100,2013-02-06 09:06:00,
2013-02-06 04:11:00,14.5,14.0,29.85,NNW,337,1.0,2.0,87,0.00,,,0.00,Rainwise IP-100,2013-02-06 09:11:00,
2013-02-06 04:17:00,14.6,14.0,29.86,NNW,337,2.0,2.0,89,0.00,,,0.00,Rainwise IP-100,2013-02-06 09:17:00,
2013-02-06 04:22:00,14.9,14.0,29.86,NNW,337,0.0,2.0,89,0.00,,,0.00,Rainwise IP-100,2013-02-06 09:22:00,
2013-02-06 04:27:00,15.1,14.0,29.86,NNW,337,2.0,2.0,88,0.00,,,0.00,Rainwise IP-100,2013-02-06 09:27:00,
2013-02-06 04:32:00,15.2,14.0,29.86,NNW,337,2.0,2.0,88,0.00,,,0.00,Rainwise IP-100,2013-02-06 09:32:00,
2013-02-06 04:37:00,15.2,14.0,29.86,NNW,337,0.0,2.0,90,0.00,,,0.00,Rainwise IP-100,2013-02-06 09:37:00,
2013-02-06 04:42:00,15.4,14.0,29.86,NNW,337,0.0,2.0,89,0.00,,,0.00,Rainwise IP-100,2013-02-06 09:42:00,
2013-02-06 04:47:00,15.4,14.0,29.87,NNW,337,0.0,2.0,90,0.00,,,0.00,Rainwise IP-100,2013-02-06 09:47:00,
2013-02-06 04:52:00,15.5,14.0,29.86,NNW,337,2.0,2.0,88,0.00,,,0.00,Rainwise IP-100,2013-02-06 09:52:00,
2013-02-06 04:57:00,15.5,14.0,29.87,NNW,337,0.0,2.0,89,0.00,,,0.00,Rainwise IP-100,2013-02-06 09:57:00,
2013-02-06 05:02:00,15.7,14.0,29.87,NNW,337,0.0,2.0,89,0.00,,,0.00,Rainwise IP-100,2013-02-06 10:02:00,
2013-02-06 05:07:00,16.1,14.0,29.87,East,90,1.0,1.0,89,0.00,,,0.00,Rainwise IP-100,2013-02-06 10:07:00,
2013-02-06 05:12:00,16.6,16.0,29.86,East,90,0.0,2.0,87,0.00,,,0.00,Rainwise IP-100,2013-02-06 10:12:00,
2013-02-06 05:18:00,17.2,16.0,29.86,SW,225,1.0,3.0,87,0.00,,,0.00,Rainwise IP-100,2013-02-06 10:18:00,
2013-02-06 05:23:00,17.8,16.0,29.87,SSE,157,1.0,2.0,86,0.00,,,0.00,Rainwise IP-100,2013-02-06 10:23:00,
2013-02-06 05:28:00,18.1,16.0,29.87,SE,135,1.0,2.0,87,0.00,,,0.00,Rainwise IP-100,2013-02-06 10:28:00,
2013-02-06 05:33:00,18.2,16.0,29.87,SSE,157,2.0,4.0,85,0.00,,,0.00,Rainwise IP-100,2013-02-06 10:33:00,
2013-02-06 05:38:00,18.6,16.0,29.87,South,180,2.0,4.0,84,0.00,,,0.00,Rainwise IP-100,2013-02-06 10:38:00,
2013-02-06 05:43:00,18.9,16.0,29.87,South,180,2.0,2.0,84,0.00,,,0.00,Rainwise IP-100,2013-02-06 10:43:00,
2013-02-06 05:48:00,19.1,16.0,29.87,South,180,2.0,4.0,83,0.00,,,0.00,Rainwise IP-100,2013-02-06 10:48:00,
2013-02-06 05:53:00,19.0,16.0,29.87,SSW,202,0.0,3.0,83,0.00,,,0.00,Rainwise IP-100,2013-02-06 10:53:00,
2013-02-06 05:58:00,19.1,16.0,29.87,SSW,202,0.0,2.0,84,0.00,,,0.00,Rainwise IP-100,2013-02-06 10:58:00,
2013-02-06 06:03:00,19.1,16.0,29.87,SW,225,2.0,3.0,83,0.00,,,0.00,Rainwise IP-100,2013-02-06 11:03:00,
2013-02-06 06:08:00,19.2,16.0,29.87,SW,225,1.0,2.0,83,0.00,,,0.00,Rainwise IP-100,2013-02-06 11:08:00,
2013-02-06 06:13:00,19.2,16.0,29.87,SSE,157,1.0,2.0,83,0.00,,,0.00,Rainwise IP-100,2013-02-06 11:13:00,
2013-02-06 06:19:00,19.3,16.0,29.87,West,270,2.0,2.0,82,0.00,,,0.00,Rainwise IP-100,2013-02-06 11:19:00,
2013-02-06 06:24:00,19.3,16.0,29.88,SW,225,0.0,5.0,83,0.00,,,0.00,Rainwise IP-100,2013-02-06 11:24:00,
2013-02-06 06:29:00,19.3,16.0,29.88,SW,225,0.0,6.0,84,0.00,,,0.00,Rainwise IP-100,2013-02-06 11:29:00,
2013-02-06 06:34:00,19.3,16.0,29.88,South,180,1.0,7.0,85,0.00,,,0.00,Rainwise IP-100,2013-02-06 11:34:00,
2013-02-06 06:39:00,19.3,18.0,29.89,SSW,202,2.0,5.0,87,0.00,,,0.00,Rainwise IP-100,2013-02-06 11:39:00,
2013-02-06 06:44:00,19.3,18.0,29.89,South,180,2.0,2.0,88,0.00,,,0.00,Rainwise IP-100,2013-02-06 11:44:00,
2013-02-06 06:49:00,19.2,18.0,29.89,South,180,1.0,5.0,90,0.00,,,0.00,Rainwise IP-100,2013-02-06 11:49:00,
2013-02-06 06:54:00,19.2,18.0,29.89,South,180,0.0,2.0,90,0.00,,,0.00,Rainwise IP-100,2013-02-06 11:54:00,
2013-02-06 06:59:00,19.2,18.0,29.89,South,180,2.0,2.0,90,0.00,,,0.00,Rainwise IP-100,2013-02-06 11:59:00,
2013-02-06 07:04:00,19.3,18.0,29.90,SSE,157,1.0,2.0,90,0.00,,,0.00,Rainwise IP-100,2013-02-06 12:04:00,
2013-02-06 07:09:00,19.4,18.0,29.90,SE,135,2.0,2.0,90,0.00,,,0.00,Rainwise IP-100,2013-02-06 12:09:00,
2013-02-06 07:14:00,19.4,18.0,29.90,SE,135,2.0,2.0,91,0.00,,,0.00,Rainwise IP-100,2013-02-06 12:14:00,
2013-02-06 07:20:00,19.3,18.0,29.90,ENE,67,1.0,2.0,91,0.00,,,0.00,Rainwise IP-100,2013-02-06 12:20:00,
2013-02-06 07:25:00,19.3,18.0,29.90,South,180,1.0,2.0,92,0.00,,,0.00,Rainwise IP-100,2013-02-06 12:25:00,
2013-02-06 07:30:00,19.5,18.0,29.91,SSE,157,3.0,5.0,92,0.00,,,0.00,Rainwise IP-100,2013-02-06 12:30:00,
2013-02-06 07:35:00,19.6,18.0,29.91,SSE,157,2.0,5.0,93,0.00,,,0.00,Rainwise IP-100,2013-02-06 12:35:00,
2013-02-06 07:40:00,19.7,18.0,29.91,WNW,292,0.0,3.0,93,0.00,,,0.00,Rainwise IP-100,2013-02-06 12:40:00,
2013-02-06 07:45:00,19.7,18.0,29.91,South,180,1.0,4.0,92,0.00,,,0.00,Rainwise IP-100,2013-02-06 12:45:00,
2013-02-06 07:50:00,19.9,18.0,29.91,West,270,3.0,4.0,92,0.00,,,0.00,Rainwise IP-100,2013-02-06 12:50:00,
2013-02-06 07:55:00,19.9,18.0,29.91,SE,135,2.0,8.0,92,0.00,,,0.00,Rainwise IP-100,2013-02-06 12:55:00,
2013-02-06 08:00:00,20.2,18.0,29.92,SW,225,1.0,4.0,90,0.00,,,0.00,Rainwise IP-100,2013-02-06 13:00:00,
2013-02-06 08:05:00,20.2,18.0,29.92,SW,225,1.0,3.0,90,0.00,,,0.00,Rainwise IP-100,2013-02-06 13:05:00,
2013-02-06 08:10:00,20.3,18.0,29.92,SW,225,1.0,5.0,90,0.00,,,0.00,Rainwise IP-100,2013-02-06 13:10:00,
2013-02-06 08:15:00,20.4,18.0,29.93,West,270,1.0,5.0,89,0.00,,,0.00,Rainwise IP-100,2013-02-06 13:15:00,
2013-02-06 08:21:00,20.5,18.0,29.93,SSE,157,1.0,6.0,89,0.00,,,0.00,Rainwise IP-100,2013-02-06 13:21:00,
2013-02-06 08:26:00,20.5,18.0,29.93,SW,225,5.0,11.0,89,0.00,,,0.00,Rainwise IP-100,2013-02-06 13:26:00,
2013-02-06 08:31:00,20.5,18.0,29.93,WSW,247,2.0,9.0,91,0.00,,,0.00,Rainwise IP-100,2013-02-06 13:31:00,
2013-02-06 08:36:00,20.6,18.0,29.93,SSW,202,4.0,6.0,91,0.00,,,0.00,Rainwise IP-100,2013-02-06 13:36:00,
2013-02-06 08:41:00,20.6,18.0,29.93,SSW,202,1.0,7.0,92,0.00,,,0.00,Rainwise IP-100,2013-02-06 13:41:00,
2013-02-06 08:46:00,20.6,18.0,29.93,WSW,247,2.0,8.0,92,0.00,,,0.00,Rainwise IP-100,2013-02-06 13:46:00,
2013-02-06 08:51:00,20.7,18.0,29.94,SW,225,2.0,4.0,92,0.00,,,0.00,Rainwise IP-100,2013-02-06 13:51:00,
2013-02-06 08:56:00,20.8,18.0,29.94,SW,225,3.0,5.0,91,0.00,,,0.00,Rainwise IP-100,2013-02-06 13:56:00,
2013-02-06 09:01:00,20.9,18.0,29.94,SW,225,6.0,7.0,89,0.00,,,0.00,Rainwise IP-100,2013-02-06 14:01:00,
2013-02-06 09:06:00,20.9,18.0,29.94,SW,225,10.0,10.0,88,0.00,,,0.00,Rainwise IP-100,2013-02-06 14:06:00,
2013-02-06 09:11:00,20.9,18.0,29.95,SSE,157,4.0,10.0,88,0.00,,,0.00,Rainwise IP-100,2013-02-06 14:11:00,
2013-02-06 09:16:00,20.9,18.0,29.95,West,270,1.0,8.0,87,0.00,,,0.00,Rainwise IP-100,2013-02-06 14:16:00,
2013-02-06 09:22:00,21.1,16.0,29.95,West,270,1.0,4.0,86,0.00,,,0.00,Rainwise IP-100,2013-02-06 14:22:00,
2013-02-06 09:27:00,20.9,18.0,29.95,SSW,202,3.0,11.0,87,0.00,,,0.00,Rainwise IP-100,2013-02-06 14:27:00,
2013-02-06 09:32:00,20.9,18.0,29.96,SSW,202,1.0,12.0,89,0.00,,,0.00,Rainwise IP-100,2013-02-06 14:32:00,
2013-02-06 09:37:00,20.8,18.0,29.96,West,270,1.0,7.0,90,0.00,,,0.00,Rainwise IP-100,2013-02-06 14:37:00,
2013-02-06 09:42:00,20.7,18.0,29.96,South,180,5.0,10.0,89,0.00,,,0.00,Rainwise IP-100,2013-02-06 14:42:00,
2013-02-06 09:47:00,20.5,18.0,29.97,NW,315,7.0,8.0,90,0.00,,,0.00,Rainwise IP-100,2013-02-06 14:47:00,
2013-02-06 09:52:00,20.3,18.0,29.97,WNW,292,4.0,11.0,92,0.00,,,0.00,Rainwise IP-100,2013-02-06 14:52:00,
2013-02-06 09:57:00,20.4,18.0,29.97,NW,315,1.0,4.0,92,0.00,,,0.00,Rainwise IP-100,2013-02-06 14:57:00,
2013-02-06 10:02:00,20.5,18.0,29.97,SW,225,1.0,4.0,93,0.00,,,0.00,Rainwise IP-100,2013-02-06 15:02:00,
2013-02-06 10:07:00,20.6,18.0,29.97,West,270,4.0,7.0,90,0.00,,,0.00,Rainwise IP-100,2013-02-06 15:07:00,
2013-02-06 10:12:00,20.6,18.0,29.97,South,180,3.0,7.0,90,0.00,,,0.00,Rainwise IP-100,2013-02-06 15:12:00,
2013-02-06 10:17:00,20.4,16.0,29.98,South,180,2.0,9.0,86,0.00,,,0.00,Rainwise IP-100,2013-02-06 15:17:00,
2013-02-06 10:23:00,20.2,16.0,29.98,NW,315,2.0,10.0,83,0.00,,,0.00,Rainwise IP-100,2013-02-06 15:23:00,
2013-02-06 10:28:00,20.1,16.0,29.98,ESE,112,2.0,10.0,84,0.00,,,0.00,Rainwise IP-100,2013-02-06 15:28:00,
2013-02-06 10:33:00,20.2,16.0,29.99,WSW,247,4.0,9.0,83,0.00,,,0.00,Rainwise IP-100,2013-02-06 15:33:00,
2013-02-06 10:38:00,20.3,16.0,29.99,SW,225,12.0,12.0,84,0.00,,,0.00,Rainwise IP-100,2013-02-06 15:38:00,
2013-02-06 10:43:00,20.2,16.0,29.99,SW,225,6.0,12.0,85,0.00,,,0.00,Rainwise IP-100,2013-02-06 15:43:00,
2013-02-06 10:48:00,20.0,16.0,29.99,SSW,202,6.0,9.0,86,0.00,,,0.00,Rainwise IP-100,2013-02-06 15:48:00,
2013-02-06 10:53:00,19.9,18.0,29.99,SSW,202,2.0,11.0,89,0.00,,,0.00,Rainwise IP-100,2013-02-06 15:53:00,
2013-02-06 10:58:00,19.8,18.0,30.00,South,180,1.0,7.0,89,0.00,,,0.00,Rainwise IP-100,2013-02-06 15:58:00,
2013-02-06 11:03:00,19.6,18.0,30.00,South,180,4.0,10.0,91,0.00,,,0.00,Rainwise IP-100,2013-02-06 16:03:00,
2013-02-06 11:08:00,19.2,18.0,30.00,West,270,2.0,11.0,91,0.00,,,0.00,Rainwise IP-100,2013-02-06 16:08:00,
2013-02-06 11:13:00,18.9,18.0,30.01,ESE,112,1.0,7.0,92,0.00,,,0.00,Rainwise IP-100,2013-02-06 16:13:00,
2013-02-06 11:18:00,18.9,18.0,30.00,West,270,5.0,5.0,90,0.00,,,0.00,Rainwise IP-100,2013-02-06 16:18:00,
2013-02-06 11:24:00,18.8,18.0,30.01,West,270,5.0,9.0,91,0.00,,,0.00,Rainwise IP-100,2013-02-06 16:24:00,
2013-02-06 11:29:00,18.9,18.0,30.01,SW,225,2.0,11.0,90,0.00,,,0.00,Rainwise IP-100,2013-02-06 16:29:00,
2013-02-06 11:34:00,19.2,18.0,30.01,WSW,247,2.0,9.0,87,0.00,,,0.00,Rainwise IP-100,2013-02-06 16:34:00,
2013-02-06 11:39:00,19.5,16.0,30.01,SW,225,1.0,15.0,85,0.00,,,0.00,Rainwise IP-100,2013-02-06 16:39:00,
2013-02-06 11:44:00,20.7,16.0,30.01,SSW,202,4.0,12.0,80,0.00,,,0.00,Rainwise IP-100,2013-02-06 16:44:00,
2013-02-06 11:49:00,20.3,18.0,30.02,NW,315,4.0,16.0,88,0.00,,,0.00,Rainwise IP-100,2013-02-06 16:49:00,
2013-02-06 11:54:00,19.7,18.0,30.02,SE,135,2.0,10.0,90,0.00,,,0.00,Rainwise IP-100,2013-02-06 16:54:00,
2013-02-06 11:59:00,19.4,16.0,30.03,South,180,1.0,14.0,86,0.00,,,0.00,Rainwise IP-100,2013-02-06 16:59:00,
2013-02-06 12:04:00,18.9,16.0,30.03,WNW,292,3.0,9.0,80,0.00,,,0.00,Rainwise IP-100,2013-02-06 17:04:00,
2013-02-06 12:09:00,18.9,16.0,30.03,WSW,247,2.0,12.0,78,0.00,,,0.00,Rainwise IP-100,2013-02-06 17:09:00,
2013-02-06 12:14:00,19.3,16.0,30.03,SE,135,2.0,12.0,78,0.00,,,0.00,Rainwise IP-100,2013-02-06 17:14:00,
2013-02-06 12:19:00,20.7,14.0,30.03,WNW,292,2.0,12.0,73,0.00,,,0.00,Rainwise IP-100,2013-02-06 17:19:00,
2013-02-06 12:25:00,20.9,14.0,30.03,West,270,4.0,11.0,72,0.00,,,0.00,Rainwise IP-100,2013-02-06 17:25:00,
2013-02-06 12:30:00,20.2,16.0,30.03,NW,315,2.0,9.0,82,0.00,,,0.00,Rainwise IP-100,2013-02-06 17:30:00,
2013-02-06 12:35:00,18.9,16.0,30.03,NW,315,2.0,9.0,86,0.00,,,0.00,Rainwise IP-100,2013-02-06 17:35:00,
2013-02-06 12:40:00,17.9,16.0,30.03,SSW,202,0.0,9.0,85,0.00,,,0.00,Rainwise IP-100,2013-02-06 17:40:00,
2013-02-06 12:45:00,17.9,14.0,30.03,West,270,2.0,7.0,82,0.00,,,0.00,Rainwise IP-100,2013-02-06 17:45:00,
2013-02-06 12:50:00,18.1,14.0,30.03,South,180,4.0,11.0,81,0.00,,,0.00,Rainwise IP-100,2013-02-06 17:50:00,
2013-02-06 12:55:00,18.5,16.0,30.04,South,180,2.0,16.0,78,0.00,,,0.00,Rainwise IP-100,2013-02-06 17:55:00,
2013-02-06 13:00:00,18.9,16.0,30.04,South,180,9.0,13.0,78,0.00,,,0.00,Rainwise IP-100,2013-02-06 18:00:00,
2013-02-06 13:05:00,19.0,14.0,30.04,SW,225,9.0,14.0,76,0.00,,,0.00,Rainwise IP-100,2013-02-06 18:05:00,
2013-02-06 13:10:00,18.8,14.0,30.04,SW,225,9.0,20.0,74,0.00,,,0.00,Rainwise IP-100,2013-02-06 18:10:00,
2013-02-06 13:15:00,18.9,14.0,30.04,NW,315,2.0,9.0,75,0.00,,,0.00,Rainwise IP-100,2013-02-06 18:15:00,
2013-02-06 13:20:00,18.9,14.0,30.05,SSW,202,7.0,7.0,75,0.00,,,0.00,Rainwise IP-100,2013-02-06 18:20:00,
2013-02-06 13:26:00,18.9,14.0,30.05,ENE,67,4.0,11.0,74,0.00,,,0.00,Rainwise IP-100,2013-02-06 18:26:00,
2013-02-06 13:31:00,18.3,11.0,30.05,South,180,8.0,14.0,74,0.00,,,0.00,Rainwise IP-100,2013-02-06 18:31:00,
2013-02-06 13:36:00,18.4,11.0,30.05,SW,225,4.0,12.0,74,0.00,,,0.00,Rainwise IP-100,2013-02-06 18:36:00,
2013-02-06 13:41:00,18.5,14.0,30.06,SSW,202,2.0,7.0,73,0.00,,,0.00,Rainwise IP-100,2013-02-06 18:41:00,
2013-02-06 13:46:00,18.1,14.0,30.06,West,270,3.0,9.0,75,0.00,,,0.00,Rainwise IP-100,2013-02-06 18:46:00,
2013-02-06 13:51:00,17.7,14.0,30.06,North,360,6.0,15.0,75,0.00,,,0.00,Rainwise IP-100,2013-02-06 18:51:00,
2013-02-06 13:56:00,17.3,14.0,30.07,North,360,5.0,11.0,75,0.00,,,0.00,Rainwise IP-100,2013-02-06 18:56:00,
2013-02-06 14:01:00,17.2,14.0,30.07,NW,315,2.0,8.0,76,0.00,,,0.00,Rainwise IP-100,2013-02-06 19:01:00,
2013-02-06 14:06:00,16.9,14.0,30.08,SSW,202,4.0,10.0,76,0.00,,,0.00,Rainwise IP-100,2013-02-06 19:06:00,
2013-02-06 14:11:00,16.5,14.0,30.08,SW,225,8.0,11.0,76,0.00,,,0.00,Rainwise IP-100,2013-02-06 19:11:00,
2013-02-06 14:16:00,16.4,11.0,30.09,NW,315,7.0,11.0,75,0.00,,,0.00,Rainwise IP-100,2013-02-06 19:16:00,
2013-02-06 14:21:00,16.6,14.0,30.08,WSW,247,2.0,11.0,75,0.00,,,0.00,Rainwise IP-100,2013-02-06 19:21:00,
2013-02-06 14:27:00,16.5,11.0,30.09,SW,225,3.0,9.0,74,0.00,,,0.00,Rainwise IP-100,2013-02-06 19:27:00,
2013-02-06 14:32:00,16.3,11.0,30.09,NW,315,5.0,12.0,74,0.00,,,0.00,Rainwise IP-100,2013-02-06 19:32:00,
2013-02-06 14:37:00,16.4,11.0,30.09,NW,315,2.0,11.0,73,0.00,,,0.00,Rainwise IP-100,2013-02-06 19:37:00,
2013-02-06 14:42:00,16.1,11.0,30.10,West,270,1.0,9.0,73,0.00,,,0.00,Rainwise IP-100,2013-02-06 19:42:00,
2013-02-06 14:47:00,16.1,11.0,30.10,NW,315,2.0,6.0,75,0.00,,,0.00,Rainwise IP-100,2013-02-06 19:47:00,
2013-02-06 14:52:00,16.3,11.0,30.11,NNW,337,1.0,11.0,74,0.00,,,0.00,Rainwise IP-100,2013-02-06 19:52:00,
2013-02-06 14:57:00,16.7,11.0,30.10,SW,225,1.0,8.0,73,0.00,,,0.00,Rainwise IP-100,2013-02-06 19:57:00,
2013-02-06 15:02:00,16.9,11.0,30.11,SW,225,9.0,14.0,70,0.00,,,0.00,Rainwise IP-100,2013-02-06 20:02:00,
2013-02-06 15:07:00,16.7,11.0,30.11,WSW,247,4.0,19.0,68,0.00,,,0.00,Rainwise IP-100,2013-02-06 20:07:00,
2013-02-06 15:12:00,16.2,8.0,30.12,West,270,3.0,11.0,69,0.00,,,0.00,Rainwise IP-100,2013-02-06 20:12:00,
2013-02-06 15:17:00,15.9,8.0,30.13,SE,135,1.0,11.0,68,0.00,,,0.00,Rainwise IP-100,2013-02-06 20:17:00,
2013-02-06 15:23:00,14.9,8.0,30.13,NW,315,1.0,12.0,70,0.00,,,0.00,Rainwise IP-100,2013-02-06 20:23:00,
2013-02-06 15:28:00,14.3,4.0,30.14,North,360,6.0,14.0,68,0.00,,,0.00,Rainwise IP-100,2013-02-06 20:28:00,
2013-02-06 15:33:00,14.1,4.0,30.13,ESE,112,2.0,12.0,65,0.00,,,0.00,Rainwise IP-100,2013-02-06 20:33:00,
2013-02-06 15:38:00,14.3,4.0,30.14,SW,225,1.0,12.0,63,0.00,,,0.00,Rainwise IP-100,2013-02-06 20:38:00,
2013-02-06 15:43:00,14.7,4.0,30.14,SSW,202,0.0,11.0,61,0.00,,,0.00,Rainwise IP-100,2013-02-06 20:43:00,
2013-02-06 15:48:00,14.9,4.0,30.14,SW,225,6.0,13.0,59,0.00,,,0.00,Rainwise IP-100,2013-02-06 20:48:00,
2013-02-06 15:53:00,15.1,4.0,30.14,ESE,112,2.0,10.0,58,0.00,,,0.00,Rainwise IP-100,2013-02-06 20:53:00,
2013-02-06 15:58:00,14.9,4.0,30.15,SSW,202,3.0,12.0,56,0.00,,,0.00,Rainwise IP-100,2013-02-06 20:58:00,
2013-02-06 16:03:00,14.9,4.0,30.15,WSW,247,1.0,7.0,56,0.00,,,0.00,Rainwise IP-100,2013-02-06 21:03:00,
2013-02-06 16:08:00,14.8,4.0,30.15,North,360,4.0,7.0,55,0.00,,,0.00,Rainwise IP-100,2013-02-06 21:08:00,
2013-02-06 16:13:00,14.6,4.0,30.15,SE,135,2.0,10.0,54,0.00,,,0.00,Rainwise IP-100,2013-02-06 21:13:00,
2013-02-06 16:18:00,14.1,0.0,30.15,West,270,4.0,7.0,53,0.00,,,0.00,Rainwise IP-100,2013-02-06 21:18:00,
2013-02-06 16:24:00,13.5,0.0,30.16,West,270,6.0,8.0,53,0.00,,,0.00,Rainwise IP-100,2013-02-06 21:24:00,
2013-02-06 16:29:00,12.8,0.0,30.16,NE,45,4.0,6.0,53,0.00,,,0.00,Rainwise IP-100,2013-02-06 21:29:00,
2013-02-06 16:34:00,12.5,0.0,30.16,ENE,67,4.0,6.0,53,0.00,,,0.00,Rainwise IP-100,2013-02-06 21:34:00,
2013-02-06 16:39:00,12.1,0.0,30.16,South,180,3.0,9.0,53,0.00,,,0.00,Rainwise IP-100,2013-02-06 21:39:00,
2013-02-06 16:44:00,11.9,0.0,30.17,South,180,1.0,8.0,50,0.00,,,0.00,Rainwise IP-100,2013-02-06 21:44:00,
2013-02-06 16:49:00,11.8,0.0,30.17,South,180,2.0,8.0,49,0.00,,,0.00,Rainwise IP-100,2013-02-06 21:49:00,
2013-02-06 16:54:00,11.6,0.0,30.17,WSW,247,5.0,8.0,50,0.00,,,0.00,Rainwise IP-100,2013-02-06 21:54:00,
2013-02-06 16:59:00,11.4,0.0,30.17,SSW,202,2.0,9.0,50,0.00,,,0.00,Rainwise IP-100,2013-02-06 21:59:00,
2013-02-06 17:04:00,11.1,0.0,30.17,South,180,4.0,6.0,50,0.00,,,0.00,Rainwise IP-100,2013-02-06 22:04:00,
2013-02-06 17:09:00,10.9,0.0,30.18,SE,135,1.0,6.0,50,0.00,,,0.00,Rainwise IP-100,2013-02-06 22:09:00,
2013-02-06 17:14:00,10.5,0.0,30.18,NE,45,1.0,7.0,50,0.00,,,0.00,Rainwise IP-100,2013-02-06 22:14:00,
2013-02-06 17:19:00,10.3,0.0,30.18,SSW,202,1.0,6.0,51,0.00,,,0.00,Rainwise IP-100,2013-02-06 22:19:00,
2013-02-06 17:25:00,10.2,0.0,30.19,SSE,157,2.0,5.0,51,0.00,,,0.00,Rainwise IP-100,2013-02-06 22:25:00,
2013-02-06 17:30:00,9.9,0.0,30.19,NW,315,2.0,7.0,51,0.00,,,0.00,Rainwise IP-100,2013-02-06 22:30:00,
2013-02-06 17:35:00,9.6,0.0,30.19,NW,315,2.0,4.0,52,0.00,,,0.00,Rainwise IP-100,2013-02-06 22:35:00,
2013-02-06 17:40:00,9.3,0.0,30.20,South,180,2.0,6.0,52,0.00,,,0.00,Rainwise IP-100,2013-02-06 22:40:00,
2013-02-06 17:45:00,8.9,0.0,30.20,South,180,0.0,2.0,52,0.00,,,0.00,Rainwise IP-100,2013-02-06 22:45:00,
2013-02-06 17:50:00,8.5,0.0,30.20,NNE,22,1.0,2.0,53,0.00,,,0.00,Rainwise IP-100,2013-02-06 22:50:00,
2013-02-06 17:55:00,8.1,-6.0,30.21,SW,225,1.0,3.0,53,0.00,,,0.00,Rainwise IP-100,2013-02-06 22:55:00,
2013-02-06 18:00:00,7.8,-6.0,30.21,SW,225,0.0,2.0,54,0.00,,,0.00,Rainwise IP-100,2013-02-06 23:00:00,
2013-02-06 18:05:00,7.2,-6.0,30.21,NW,315,0.0,2.0,57,0.00,,,0.00,Rainwise IP-100,2013-02-06 23:05:00,
2013-02-06 18:10:00,6.7,-6.0,30.22,SW,225,2.0,4.0,58,0.00,,,0.00,Rainwise IP-100,2013-02-06 23:10:00,
2013-02-06 18:15:00,6.9,-6.0,30.22,East,90,0.0,4.0,57,0.00,,,0.00,Rainwise IP-100,2013-02-06 23:15:00,
2013-02-06 18:20:00,6.6,-6.0,30.22,NW,315,0.0,4.0,56,0.00,,,0.00,Rainwise IP-100,2013-02-06 23:20:00,
2013-02-06 18:26:00,6.3,-6.0,30.22,NW,315,0.0,2.0,58,0.00,,,0.00,Rainwise IP-100,2013-02-06 23:26:00,
2013-02-06 18:31:00,6.1,-6.0,30.22,SW,225,2.0,4.0,58,0.00,,,0.00,Rainwise IP-100,2013-02-06 23:31:00,
2013-02-06 18:36:00,6.2,-6.0,30.23,South,180,1.0,2.0,58,0.00,,,0.00,Rainwise IP-100,2013-02-06 23:36:00,
2013-02-06 18:41:00,5.9,0.0,30.22,SE,135,0.0,2.0,60,0.00,,,0.00,Rainwise IP-100,2013-02-06 23:41:00,
2013-02-06 18:46:00,5.4,0.0,30.24,SE,135,1.0,1.0,61,0.00,,,0.00,Rainwise IP-100,2013-02-06 23:46:00,
2013-02-06 18:51:00,5.1,0.0,30.24,SE,135,0.0,1.0,66,0.00,,,0.00,Rainwise IP-100,2013-02-06 23:51:00,
2013-02-06 18:56:00,4.3,0.0,30.24,SE,135,0.0,2.0,70,0.00,,,0.00,Rainwise IP-100,2013-02-06 23:56:00,
2013-02-06 19:01:00,3.7,0.0,30.24,SE,135,0.0,0.0,71,0.00,,,0.00,Rainwise IP-100,2013-02-07 00:01:00,
2013-02-06 19:06:00,2.9,0.0,30.24,SE,135,0.0,0.0,74,0.00,,,0.00,Rainwise IP-100,2013-02-07 00:06:00,
2013-02-06 19:11:00,2.6,0.0,30.24,SE,135,0.0,1.0,75,0.00,,,0.00,Rainwise IP-100,2013-02-07 00:11:00,
2013-02-06 19:16:00,2.5,0.0,30.25,SSE,157,0.0,2.0,73,0.00,,,0.00,Rainwise IP-100,2013-02-07 00:16:00,
2013-02-06 19:21:00,2.6,0.0,30.25,SSE,157,0.0,0.0,74,0.00,,,0.00,Rainwise IP-100,2013-02-07 00:21:00,
2013-02-06 19:27:00,2.5,0.0,30.25,SSE,157,0.0,0.0,75,0.00,,,0.00,Rainwise IP-100,2013-02-07 00:27:00,
2013-02-06 19:32:00,2.6,0.0,30.25,SSE,157,0.0,0.0,75,0.00,,,0.00,Rainwise IP-100,2013-02-07 00:32:00,
2013-02-06 19:37:00,3.2,-6.0,30.25,South,180,0.0,2.0,68,0.00,,,0.00,Rainwise IP-100,2013-02-07 00:37:00,
2013-02-06 19:42:00,3.5,0.0,30.25,South,180,0.0,0.0,76,0.00,,,0.00,Rainwise IP-100,2013-02-07 00:42:00,
2013-02-06 19:47:00,3.4,0.0,30.25,South,180,0.0,0.0,76,0.00,,,0.00,Rainwise IP-100,2013-02-07 00:47:00,
2013-02-06 19:52:00,3.4,0.0,30.26,South,180,0.0,0.0,75,0.00,,,0.00,Rainwise IP-100,2013-02-07 00:52:00,
2013-02-06 19:57:00,3.6,0.0,30.25,South,180,0.0,1.0,73,0.00,,,0.00,Rainwise IP-100,2013-02-07 00:57:00,
2013-02-06 20:02:00,3.5,0.0,30.26,South,180,0.0,0.0,75,0.00,,,0.00,Rainwise IP-100,2013-02-07 01:02:00,
2013-02-06 20:07:00,3.4,0.0,30.26,South,180,0.0,0.0,78,0.00,,,0.00,Rainwise IP-100,2013-02-07 01:07:00,
2013-02-06 20:12:00,3.2,0.0,30.26,South,180,0.0,0.0,75,0.00,,,0.00,Rainwise IP-100,2013-02-07 01:12:00,
2013-02-06 20:17:00,3.7,0.0,30.26,SSW,202,0.0,0.0,73,0.00,,,0.00,Rainwise IP-100,2013-02-07 01:17:00,
2013-02-06 20:22:00,3.9,0.0,30.26,SSW,202,0.0,2.0,75,0.00,,,0.00,Rainwise IP-100,2013-02-07 01:22:00,
2013-02-06 20:28:00,3.8,0.0,30.27,SSW,202,0.0,0.0,73,0.00,,,0.00,Rainwise IP-100,2013-02-07 01:28:00,
2013-02-06 20:33:00,3.6,0.0,30.27,SSW,202,0.0,0.0,77,0.00,,,0.00,Rainwise IP-100,2013-02-07 01:33:00,
2013-02-06 20:38:00,3.5,0.0,30.27,SSW,202,0.0,0.0,77,0.00,,,0.00,Rainwise IP-100,2013-02-07 01:38:00,
2013-02-06 20:43:00,3.5,0.0,30.28,SSW,202,0.0,2.0,77,0.00,,,0.00,Rainwise IP-100,2013-02-07 01:43:00,
2013-02-06 20:48:00,3.6,0.0,30.28,SSW,202,0.0,1.0,76,0.00,,,0.00,Rainwise IP-100,2013-02-07 01:48:00,
2013-02-06 20:53:00,3.4,0.0,30.28,SSW,202,0.0,0.0,77,0.00,,,0.00,Rainwise IP-100,2013-02-07 01:53:00,
2013-02-06 20:58:00,3.6,0.0,30.28,SSW,202,0.0,0.0,76,0.00,,,0.00,Rainwise IP-100,2013-02-07 01:58:00,
2013-02-06 21:03:00,3.7,0.0,30.29,SSW,202,0.0,0.0,76,0.00,,,0.00,Rainwise IP-100,2013-02-07 02:03:00,
2013-02-06 21:08:00,3.5,0.0,30.29,SSW,202,0.0,1.0,76,0.00,,,0.00,Rainwise IP-100,2013-02-07 02:08:00,
2013-02-06 21:13:00,2.9,0.0,30.29,SSW,202,0.0,0.0,78,0.00,,,0.00,Rainwise IP-100,2013-02-07 02:13:00,
2013-02-06 21:18:00,2.2,0.0,30.29,SSW,202,0.0,0.0,81,0.00,,,0.00,Rainwise IP-100,2013-02-07 02:18:00,
2013-02-06 21:23:00,1.5,0.0,30.29,SSW,202,0.0,0.0,82,0.00,,,0.00,Rainwise IP-100,2013-02-07 02:23:00,
2013-02-06 21:29:00,1.1,0.0,30.29,SSW,202,0.0,1.0,81,0.00,,,0.00,Rainwise IP-100,2013-02-07 02:29:00,
2013-02-06 21:34:00,0.7,0.0,30.29,SSW,202,0.0,0.0,82,0.00,,,0.00,Rainwise IP-100,2013-02-07 02:34:00,
2013-02-06 21:39:00,0.1,-6.0,30.29,SSW,202,0.0,0.0,84,0.00,,,0.00,Rainwise IP-100,2013-02-07 02:39:00,
2013-02-06 21:44:00,0.2,-6.0,30.30,SSW,202,0.0,0.0,84,0.00,,,0.00,Rainwise IP-100,2013-02-07 02:44:00,
2013-02-06 21:49:00,0.7,-6.0,30.30,SSW,202,1.0,1.0,85,0.00,,,0.00,Rainwise IP-100,2013-02-07 02:49:00,
2013-02-06 21:54:00,0.3,-6.0,30.30,NW,315,1.0,2.0,83,0.00,,,0.00,Rainwise IP-100,2013-02-07 02:54:00,
2013-02-06 21:59:00,0.4,-6.0,30.30,NW,315,0.0,2.0,84,0.00,,,0.00,Rainwise IP-100,2013-02-07 02:59:00,
2013-02-06 22:04:00,0.9,-6.0,30.30,NW,315,0.0,1.0,86,0.00,,,0.00,Rainwise IP-100,2013-02-07 03:04:00,
2013-02-06 22:09:00,-1.5,-6.0,30.30,NW,315,0.0,0.0,86,0.00,,,0.00,Rainwise IP-100,2013-02-07 03:09:00,
2013-02-06 22:14:00,-1.9,-6.0,30.30,NW,315,0.0,0.0,87,0.00,,,0.00,Rainwise IP-100,2013-02-07 03:14:00,
2013-02-06 22:19:00,-2.2,-6.0,30.29,NW,315,0.0,2.0,87,0.00,,,0.00,Rainwise IP-100,2013-02-07 03:19:00,
2013-02-06 22:24:00,-2.8,0.0,30.29,NW,315,0.0,2.0,88,0.00,,,0.00,Rainwise IP-100,2013-02-07 03:24:00,
2013-02-06 22:30:00,-2.9,0.0,30.29,NW,315,0.0,1.0,89,0.00,,,0.00,Rainwise IP-100,2013-02-07 03:30:00,
2013-02-06 22:35:00,-2.9,0.0,30.29,NW,315,0.0,1.0,89,0.00,,,0.00,Rainwise IP-100,2013-02-07 03:35:00,
2013-02-06 22:40:00,-3.1,0.0,30.30,NW,315,0.0,0.0,89,0.00,,,0.00,Rainwise IP-100,2013-02-07 03:40:00,
2013-02-06 22:45:00,-3.5,0.0,30.30,NW,315,0.0,1.0,89,0.00,,,0.00,Rainwise IP-100,2013-02-07 03:45:00,
2013-02-06 22:50:00,-4.1,0.0,30.30,NW,315,2.0,2.0,91,0.00,,,0.00,Rainwise IP-100,2013-02-07 03:50:00,
2013-02-06 22:55:00,-4.3,0.0,30.31,NW,315,1.0,2.0,92,0.00,,,0.00,Rainwise IP-100,2013-02-07 03:55:00,
2013-02-06 23:00:00,-4.4,0.0,30.31,NW,315,1.0,2.0,92,0.00,,,0.00,Rainwise IP-100,2013-02-07 04:00:00,
2013-02-06 23:05:00,-4.2,0.0,30.30,NW,315,0.0,2.0,92,0.00,,,0.00,Rainwise IP-100,2013-02-07 04:05:00,
2013-02-06 23:10:00,-4.6,0.0,30.29,NW,315,0.0,1.0,92,0.00,,,0.00,Rainwise IP-100,2013-02-07 04:10:00,
2013-02-06 23:15:00,-5.2,0.0,30.30,NW,315,0.0,1.0,92,0.00,,,0.00,Rainwise IP-100,2013-02-07 04:15:00,
2013-02-06 23:20:00,-5.8,-6.0,30.30,NW,315,0.0,0.0,92,0.00,,,0.00,Rainwise IP-100,2013-02-07 04:20:00,
2013-02-06 23:25:00,-5.9,-6.0,30.31,NW,315,0.0,0.0,92,0.00,,,0.00,Rainwise IP-100,2013-02-07 04:25:00,
2013-02-06 23:31:00,-5.8,-6.0,30.32,NW,315,0.0,2.0,92,0.00,,,0.00,Rainwise IP-100,2013-02-07 04:31:00,
2013-02-06 23:36:00,-5.5,0.0,30.32,NW,315,1.0,2.0,92,0.00,,,0.00,Rainwise IP-100,2013-02-07 04:36:00,
2013-02-06 23:41:00,-5.8,-6.0,30.31,NW,315,1.0,2.0,92,0.00,,,0.00,Rainwise IP-100,2013-02-07 04:41:00,
2013-02-06 23:46:00,-5.3,0.0,30.31,NW,315,0.0,2.0,92,0.00,,,0.00,Rainwise IP-100,2013-02-07 04:46:00,
2013-02-06 23:51:00,-5.5,0.0,30.30,West,270,0.0,2.0,92,0.00,,,0.00,Rainwise IP-100,2013-02-07 04:51:00,
2013-02-06 23:56:00,-5.6,-6.0,30.31,West,270,0.0,2.0,92,0.00,,,0.00,Rainwise IP-100,2013-02-07 04:56:00,